Location: Agendoh
(31.0664°N, 8.9343°W)
Time: 19:36:41
(UTC+00:00)

OAO 3 Rocket - Pass Details

Date: 06 December 2021
Orbit: 628 x 682 km, 35.0° (Epoch: 17 January)

Event Time Altitude Azimuth Distance (km) Brightness Sun altitude
Exits shadow 05:17:59 40° 192° (SSW) 999 4.0 -25.6°
Drops below altitude 10° 05:22:07 10° 138° (SE) 2,108 6.5 -24.7°
Sets 05:24:36 0° 131° (SE) 3,018 7.6 -24.2°
